Regional Weather Roundup
Issued by NWS

Home | Current Version | Previous Version | Text Only | Print | Product List | Glossary On
Versions: 1 2 3 4 5 6 7 8 9 10 11 12 13 14 15 16 17 18 19 20 21 22 23 24 25 26 27 28 29 30 31 32 33 34 35 36 37 38 39 40 41 42 43 44 45 46 47 48 49 50
000
ASUS43 KBIS 222231
RWRND
NORTH DAKOTA REGIONAL WEATHER ROUNDUP
NATIONAL WEATHER SERVICE EASTERN NORTH DAKOTA/GRAND FORKS ND
500 PM CDT SUN APR 22 2018

  NOTE: "FAIR" INDICATES FEW OR NO CLOUDS BELOW 12,000 FEET WITH NO
  SIGNIFICANT WEATHER AND/OR OBSTRUCTIONS TO VISIBILITY.

NDZ001>003-009>011-017-222300-
...NORTHWEST NORTH DAKOTA...

CITY           SKY/WX    TMP DP  RH WIND       PRES   REMARKS
WILLISTON      FAIR      67  24  19 SW14      30.08F
MINOT          PTSUNNY   62  29  28 W6        30.09F
MINOT AFB      FAIR      63  31  30 W12       30.07F
$$

NDZ018>021-031>035-040>046-222300-
...SOUTHWEST NORTH DAKOTA...

CITY           SKY/WX    TMP DP  RH WIND       PRES   REMARKS
BISMARCK       FAIR      69  40  34 SW8       30.07F
DICKINSON      CLOUDY    67  21  17 MISG      30.07F
GARRISON         N/A     61  34  36 NW5       30.09F
HETTINGER      FAIR      68  33  27 VRB7      30.08F
$$

NDZ004>008-012>016-024-026-027-054-222300-
...NORTHEAST NORTH DAKOTA...

CITY           SKY/WX    TMP DP  RH WIND       PRES   REMARKS
GRAND FORKS    FAIR      61  46  57 S18G28    30.13F
GRAND FORKS AF PTSUNNY   63  45  52 S20       30.12F
DEVILS LAKE    CLOUDY    60  41  49 W7        30.11S
$$

NDZ022-023-025-028>030-036>039-047>053-222300-
...SOUTHEAST NORTH DAKOTA...

CITY           SKY/WX    TMP DP  RH WIND       PRES   REMARKS
JAMESTOWN      FAIR      65  39  38 SW17      30.11F
FARGO          FAIR      66  41  40 S18G29    30.15F
WAHPETON       FAIR      61  36  39 S17       30.19F
$$



USA.gov is the U.S. government's official web portal to all federal, state and local government web resources and services.